Humidity-temperature Sensor

Selected Measurement Type: Air Temperature

 
Air Temperature [°C]     6 entries per hour
Showing data from 4/15/2022 (00:00:00 Z) to 4/8/2022 (00:01:00 Z)
Previous Next [ Day | 3-Days | 7-Days ]
First Last
Prev [ Day | 3-Days | 7-Days ] Next
First Last

Start Time:     :
End Time:     :     
Time (in GMT) :00 :50 :40 :30 :20 :10
Previous Next [ Day | 3-Days | 7-Days ]
First Last
Prev [ Day | 3-Days | 7-Days ] Next
First Last


123 => good data
MM => data is determined as missing
-- => data not received/configured
Back to Top Back to Top
4/15/2022 00:00 to 23:10 28.07 27.92 27.96 27.95 27.94 27.94
4/14/2022 23:00 to 22:10 27.92 28.03 28.20 28.03 27.92 27.92
4/14/2022 22:00 to 21:10 27.85 27.83 27.85 27.80 27.43 27.93
4/14/2022 21:00 to 20:10 27.94 27.72 27.77 27.77 27.85 27.66
4/14/2022 20:00 to 19:10 27.83 27.62 27.51 27.47 27.68 27.64
4/14/2022 19:00 to 18:10 27.84 27.44 27.49 27.39 27.33 27.23
4/14/2022 18:00 to 17:10 27.23 27.09 27.06 27.07 26.88 26.52
4/14/2022 17:00 to 16:10 26.95 26.69 26.55 26.41 26.38 26.67
4/14/2022 16:00 to 15:10 26.58 26.62 26.64 27.31 27.31 27.22
4/14/2022 15:00 to 14:10 27.15 27.41 27.48 27.30 27.42 27.53
4/14/2022 14:00 to 13:10 27.48 27.65 27.45 27.68 27.62 27.40
4/14/2022 13:00 to 12:10 27.41 27.44 27.36 27.53 27.17 27.29
4/14/2022 12:00 to 11:10 27.38 27.26 27.35 27.06 26.97 27.08
4/14/2022 11:00 to 10:10 27.06 27.36 27.27 27.32 27.40 27.21
4/14/2022 10:00 to 9:10 27.17 27.27 27.20 27.21 27.37 27.22
4/14/2022 09:00 to 8:10 27.60 27.59 27.42 27.37 27.28 27.39
4/14/2022 08:00 to 7:10 27.40 27.34 27.46 27.57 27.62 27.61
4/14/2022 07:00 to 6:10 27.59 27.79 27.76 27.82 27.76 27.79
4/14/2022 06:00 to 5:10 27.87 27.61 27.69 27.60 27.59 27.74
4/14/2022 05:00 to 4:10 27.69 27.75 27.69 27.67 27.60 27.73
4/14/2022 04:00 to 3:10 27.68 27.50 27.60 27.55 27.56 27.68
4/14/2022 03:00 to 2:10 27.54 27.42 27.67 27.56 27.49 27.34
4/14/2022 02:00 to 1:10 27.41 27.36 27.54 27.34 27.39 27.29
4/14/2022 01:00 to 0:10 27.24 27.36 27.19 27.22 27.19 27.17
4/14/2022 00:00 to 23:10 27.27 27.09 27.27 27.59 27.17 27.14
4/13/2022 23:00 to 22:10 26.89 26.85 26.62 26.73 26.56 26.44
4/13/2022 22:00 to 21:10 26.31 26.34 26.12 26.03 26.28 26.18
4/13/2022 21:00 to 20:10 26.11 26.06 26.15 26.33 26.40 26.42
4/13/2022 20:00 to 19:10 26.39 26.54 27.09 26.99 26.94 26.93
4/13/2022 19:00 to 18:10 27.02 26.99 26.89 26.69 26.90 27.04
4/13/2022 18:00 to 17:10 26.95 26.79 26.67 26.64 26.57 26.71
4/13/2022 17:00 to 16:10 27.08 27.19 27.12 26.90 26.84 26.68
4/13/2022 16:00 to 15:10 26.69 26.64 26.60 26.56 26.49 26.68
4/13/2022 15:00 to 14:10 26.55 26.59 26.37 26.31 26.22 26.04
4/13/2022 14:00 to 13:10 25.93 26.00 25.95 25.89 25.63 25.58
4/13/2022 13:00 to 12:10 25.68 25.44 25.44 25.49 25.76 25.70
4/13/2022 12:00 to 11:10 25.60 25.72 25.71 25.59 25.61 25.80
4/13/2022 11:00 to 10:10 25.61 25.41 25.64 25.41 25.47 25.84
4/13/2022 10:00 to 9:10 25.66 25.79 25.72 25.87 25.79 25.87
4/13/2022 09:00 to 8:10 25.88 25.95 26.16 26.26 26.58 26.81
4/13/2022 08:00 to 7:10 26.75 26.84 26.97 26.90 27.20 26.31
4/13/2022 07:00 to 6:10 26.70 26.93 26.93 26.89 27.17 27.31
4/13/2022 06:00 to 5:10 27.54 27.74 27.77 27.77 27.66 27.52
4/13/2022 05:00 to 4:10 27.54 27.43 27.39 27.19 27.32 27.15
4/13/2022 04:00 to 3:10 27.10 27.01 27.11 27.05 27.20 26.95
4/13/2022 03:00 to 2:10 27.12 27.26 27.06 27.40 27.88 27.56
4/13/2022 02:00 to 1:10 27.47 27.47 27.43 27.37 27.36 27.28
4/13/2022 01:00 to 0:10 27.20 27.15 27.23 27.05 27.29 27.13
4/13/2022 00:00 to 23:10 27.16 27.05 27.14 27.12 27.10 26.96
4/12/2022 23:00 to 22:10 26.95 26.90 26.96 27.02 27.11 27.10
4/12/2022 22:00 to 21:10 27.30 27.16 26.98 26.57 26.65 26.75
4/12/2022 21:00 to 20:10 26.67 26.50 26.42 26.27 26.42 26.32
4/12/2022 20:00 to 19:10 26.39 26.44 26.36 26.38 26.27 26.03
4/12/2022 19:00 to 18:10 26.03 25.99 25.83 25.72 26.05 26.00
4/12/2022 18:00 to 17:10 25.81 25.83 26.27 26.26 26.35 27.00
4/12/2022 17:00 to 16:10 27.38 27.43 27.36 27.23 27.28 27.26
4/12/2022 16:00 to 15:10 27.11 27.16 27.26 27.20 27.24 27.31
4/12/2022 15:00 to 14:10 27.29 27.21 27.16 27.22 27.11 27.22
4/12/2022 14:00 to 13:10 27.06 26.98 26.84 26.84 26.79 26.78
4/12/2022 13:00 to 12:10 26.85 26.84 26.90 26.89 26.90 26.56
4/12/2022 12:00 to 11:10 26.41 26.58 26.58 26.67 26.29 26.25
4/12/2022 11:00 to 10:10 26.33 26.53 26.26 26.20 26.16 26.19
4/12/2022 10:00 to 9:10 26.28 25.90 25.87 25.82 25.69 25.68
4/12/2022 09:00 to 8:10 25.63 25.50 25.52 25.43 25.28 24.99
4/12/2022 08:00 to 7:10 25.20 25.24 25.16 25.29 25.22 26.31
4/12/2022 07:00 to 6:10 26.37 26.55 26.58 26.71 26.67 26.73
4/12/2022 06:00 to 5:10 26.73 26.88 26.95 27.07 27.10 27.27
4/12/2022 05:00 to 4:10 27.01 26.99 27.06 27.01 26.96 27.01
4/12/2022 04:00 to 3:10 27.20 27.23 27.36 27.60 27.48 27.17
4/12/2022 03:00 to 2:10 27.17 27.47 27.46 27.16 27.13 26.99
4/12/2022 02:00 to 1:10 26.75 26.66 26.69 26.62 26.82 26.69
4/12/2022 01:00 to 0:10 26.93 27.14 27.79 27.94 27.80 27.72
4/12/2022 00:00 to 23:10 27.85 27.82 28.07 27.88 27.92 27.93
4/11/2022 23:00 to 22:10 27.84 27.95 27.96 27.87 27.86 27.87
4/11/2022 22:00 to 21:10 27.76 27.73 27.77 27.60 27.71 27.62
4/11/2022 21:00 to 20:10 27.76 27.66 27.75 27.67 27.71 27.73
4/11/2022 20:00 to 19:10 27.59 27.74 27.70 27.64 27.70 27.71
4/11/2022 19:00 to 18:10 27.65 27.54 27.57 27.72 27.78 27.68
4/11/2022 18:00 to 17:10 27.60 27.34 27.46 27.91 27.62 27.70
4/11/2022 17:00 to 16:10 27.47 27.53 27.63 27.47 27.77 27.70
4/11/2022 16:00 to 15:10 27.71 27.65 27.68 27.77 27.69 27.59
4/11/2022 15:00 to 14:10 27.69 27.78 27.75 27.86 27.83 27.68
4/11/2022 14:00 to 13:10 27.60 27.39 27.36 27.40 27.31 27.23
4/11/2022 13:00 to 12:10 27.16 27.19 27.17 27.10 26.96 26.71
4/11/2022 12:00 to 11:10 26.79 26.99 26.88 26.87 27.18 27.03
4/11/2022 11:00 to 10:10 26.95 26.81 26.70 26.44 26.45 26.22
4/11/2022 10:00 to 9:10 26.09 26.10 26.45 26.65 27.05 26.84
4/11/2022 09:00 to 8:10 26.79 26.56 26.51 26.21 26.10 25.91
4/11/2022 08:00 to 7:10 25.86 25.47 25.34 25.48 25.87 26.03
4/11/2022 07:00 to 6:10 26.04 25.87 26.65 27.13 27.43 27.43
4/11/2022 06:00 to 5:10 27.68 27.82 28.03 28.09 28.19 27.99
4/11/2022 05:00 to 4:10 27.88 27.87 27.66 27.78 27.83 28.08
4/11/2022 04:00 to 3:10 28.06 28.49 28.90 28.71 28.75 28.65
4/11/2022 03:00 to 2:10 28.75 28.71 28.59 28.66 28.51 28.68
4/11/2022 02:00 to 1:10 28.82 28.80 28.70 28.89 29.16 28.83
4/11/2022 01:00 to 0:10 28.81 28.84 28.89 28.95 28.92 29.06
4/11/2022 00:00 to 23:10 28.92 28.94 28.99 28.97 28.85 29.14
4/10/2022 23:00 to 22:10 28.95 29.23 29.03 29.11 29.05 29.01
4/10/2022 22:00 to 21:10 29.09 28.99 29.09 28.98 28.84 28.98
4/10/2022 21:00 to 20:10 29.08 29.07 28.91 28.82 28.72 28.66
4/10/2022 20:00 to 19:10 28.72 28.81 28.70 28.60 28.60 28.62
4/10/2022 19:00 to 18:10 28.65 28.69 28.77 28.64 28.63 28.59
4/10/2022 18:00 to 17:10 28.67 28.66 28.68 28.78 28.74 28.73
4/10/2022 17:00 to 16:10 28.77 28.72 28.55 28.77 28.54 28.58
4/10/2022 16:00 to 15:10 28.60 28.52 28.44 28.58 28.37 28.55
4/10/2022 15:00 to 14:10 28.46 28.51 28.59 28.45 28.42 28.41
4/10/2022 14:00 to 13:10 28.46 28.55 28.50 28.36 28.35 28.26
4/10/2022 13:00 to 12:10 28.20 28.30 28.13 28.16 28.10 28.05
4/10/2022 12:00 to 11:10 28.06 28.15 28.06 27.99 28.10 28.14
4/10/2022 11:00 to 10:10 28.08 28.02 28.15 28.16 28.24 27.94
4/10/2022 10:00 to 9:10 28.24 28.13 28.14 28.19 28.08 28.11
4/10/2022 09:00 to 8:10 28.00 27.88 27.81 27.93 27.95 27.97
4/10/2022 08:00 to 7:10 27.89 27.87 28.01 27.96 28.18 27.96
4/10/2022 07:00 to 6:10 27.97 27.89 28.05 28.11 28.22 28.09
4/10/2022 06:00 to 5:10 28.12 28.09 28.15 28.09 28.14 28.00
4/10/2022 05:00 to 4:10 27.99 27.98 28.10 28.18 28.14 27.96
4/10/2022 04:00 to 3:10 27.96 27.78 27.89 27.71 27.76 27.68
4/10/2022 03:00 to 2:10 27.65 27.56 27.39 27.28 27.10 26.94
4/10/2022 02:00 to 1:10 26.94 26.87 27.09 27.15 27.50 27.35
4/10/2022 01:00 to 0:10 27.54 27.35 27.49 27.31 28.17 28.80
4/10/2022 00:00 to 23:10 28.92 29.28 29.31 29.38 29.44 29.32
4/9/2022 23:00 to 22:10 29.28 28.94 29.15 29.11 29.33 29.31
4/9/2022 22:00 to 21:10 29.09 29.04 28.94 28.97 28.86 28.80
4/9/2022 21:00 to 20:10 28.87 28.89 28.95 28.81 28.84 28.82
4/9/2022 20:00 to 19:10 28.95 28.92 29.11 29.07 28.62 28.39
4/9/2022 19:00 to 18:10 28.42 28.56 28.31 28.34 28.19 28.29
4/9/2022 18:00 to 17:10 28.12 28.07 28.00 27.96 28.13 27.94
4/9/2022 17:00 to 16:10 28.22 27.95 28.09 28.24 28.37 28.24
4/9/2022 16:00 to 15:10 28.07 28.09 28.15 28.13 27.96 27.77
4/9/2022 15:00 to 14:10 27.88 27.35 27.32 27.22 27.11 27.04
4/9/2022 14:00 to 13:10 26.71 26.85 26.54 26.53 26.49 26.31
4/9/2022 13:00 to 12:10 26.31 26.32 26.26 26.27 26.17 26.18
4/9/2022 12:00 to 11:10 26.18 26.12 26.08 26.05 25.89 25.82
4/9/2022 11:00 to 10:10 25.75 25.61 25.54 25.45 25.61 25.60
4/9/2022 10:00 to 9:10 25.54 25.61 25.49 25.33 25.21 25.31
4/9/2022 09:00 to 8:10 25.26 25.12 25.06 25.03 24.87 24.76
4/9/2022 08:00 to 7:10 24.57 24.65 24.31 24.29 24.28 23.95
4/9/2022 07:00 to 6:10 24.45 25.25 25.03 25.29 25.03 25.30
4/9/2022 06:00 to 5:10 25.20 25.64 25.66 26.23 26.48 27.11
4/9/2022 05:00 to 4:10 27.14 27.55 27.62 27.62 27.29 27.31
4/9/2022 04:00 to 3:10 27.22 27.53 27.30 27.27 27.14 27.06
4/9/2022 03:00 to 2:10 27.09 27.17 27.12 27.21 26.96 27.13
4/9/2022 02:00 to 1:10 27.12 27.33 27.42 27.50 27.63 27.48
4/9/2022 01:00 to 0:10 27.56 27.44 27.38 27.35 27.14 27.23
4/9/2022 00:00 to 23:10 27.46 27.42 27.60 27.64 27.60 27.66
4/8/2022 23:00 to 22:10 27.61 27.46 27.49 27.64 27.31 27.26
4/8/2022 22:00 to 21:10 26.86 26.56 26.52 26.57 26.54 26.30
4/8/2022 21:00 to 20:10 26.29 26.21 26.30 26.31 26.16 25.91
4/8/2022 20:00 to 19:10 25.62 26.12 26.03 25.81 25.89 26.01
4/8/2022 19:00 to 18:10 26.00 25.99 26.08 26.18 26.09 26.38
4/8/2022 18:00 to 17:10 26.90 27.09 28.09 28.02 28.20 28.22
4/8/2022 17:00 to 16:10 28.19 28.31 28.12 28.22 28.22 28.10
4/8/2022 16:00 to 15:10 27.93 28.01 28.08 27.84 27.74 27.86
4/8/2022 15:00 to 14:10 27.76 27.84 27.75 27.75 27.84 27.77
4/8/2022 14:00 to 13:10 27.81 27.78 27.82 27.75 27.67 27.74
4/8/2022 13:00 to 12:10 27.65 27.61 27.52 27.44 27.48 27.40
4/8/2022 12:00 to 11:10 27.43 27.37 27.34 27.32 27.44 27.35
4/8/2022 11:00 to 10:10 27.32 27.29 27.35 27.43 27.44 27.34
4/8/2022 10:00 to 9:10 27.39 27.45 27.51 27.53 27.59 27.52
4/8/2022 09:00 to 8:10 27.50 27.48 27.65 28.01 28.82 28.29
4/8/2022 08:00 to 7:10 28.30 28.26 28.25 28.33 28.32 28.33
4/8/2022 07:00 to 6:10 28.32 28.54 28.25 28.32 28.61 28.61
4/8/2022 06:00 to 5:10 28.43 28.47 28.53 28.56 28.51 28.50
4/8/2022 05:00 to 4:10 28.54 28.70 28.64 28.58 28.47 28.52
4/8/2022 04:00 to 3:10 28.48 28.63 28.60 28.66 28.63 28.55
4/8/2022 03:00 to 2:10 28.42 28.43 28.50 28.49 28.62 28.47
4/8/2022 02:00 to 1:10 28.40 28.56 28.42 28.49 28.48 28.52
4/8/2022 01:00 to 0:10 28.47 28.42 28.45 28.52 28.64 29.06